Overview Statistics Trail Chart Weather Telemetry Raw packets
 

This is the latest recevied weather packets stored in our database for station/object K6CEG. If no packets are shown the sender has not sent any weather packets the latest 10 day(s).

<< 82 83 84 85 86 87 88 >>
Time Temp. Humidity Pressure Rain* Wind** Luminosity Snow
1788076714 23.33° C 66% 1013.3 hPa 0 mm - 0 W/m² -
1788076410 23.89° C 66% 1013 hPa 0 mm - 0 W/m² -
1788076105 23.89° C 66% 1013.1 hPa 0 mm - 0 W/m² -
1788075801 23.89° C 66% 1013.5 hPa 0 mm - 0 W/m² -
1788075496 23.89° C 66% 1013.3 hPa 0 mm - 0 W/m² -
1788075192 23.89° C 66% 1013.4 hPa 0 mm - 0 W/m² -
1788074892 23.89° C 65% 1013.4 hPa 0 mm - 0 W/m² -
1788074588 23.89° C 66% 1013.5 hPa 0 mm - 0 W/m² -
1788074282 23.89° C 66% 1013.2 hPa 0 mm - 0 W/m² -
1788073982 23.89° C 66% 1013.3 hPa 0 mm - 0 W/m² -
1788073681 23.89° C 66% 1013.3 hPa 0 mm - 0 W/m² -
1788073375 23.89° C 65% 1013.2 hPa 0 mm - 0 W/m² -
1788073074 23.89° C 65% 1013.2 hPa 0 mm - 0 W/m² -
1788072769 23.89° C 65% 1013.2 hPa 0 mm - 0 W/m² -
1788072468 24.44° C 65% 1013.1 hPa 0 mm - 0 W/m² -
1788072164 24.44° C 64% 1013 hPa 0 mm - 0 W/m² -
1788071864 24.44° C 64% 1013.1 hPa 0 mm - 0 W/m² -
1788071563 24.44° C 64% 1012.8 hPa 0 mm - 0 W/m² -
1788071257 24.44° C 64% 1012.9 hPa 0 mm - 0 W/m² -
1788070952 23.89° C 64% 1012.7 hPa 0 mm - 0 W/m² -
1788070652 24.44° C 64% 1012.8 hPa 0 mm - 0 W/m² -
1788070348 24.44° C 64% 1012.8 hPa 0 mm - 0 W/m² -
1788070045 24.44° C 63% 1012.9 hPa 0 mm - 0 W/m² -
1788069744 25° C 63% 1012.6 hPa 0 mm - 0 W/m² -
1788069442 24.44° C 63% 1012.9 hPa 0 mm - 0 W/m² -

* Rain latest hour (hover to see other rain measurements)
** Current wind speed in m/s (hover to see current wind gust speed)